Location: Misciano
(43.5000°N, 11.9500°E)
Time: 00:02:52
(UTC+00:00)

Cosmos 1703 Rocket - Pass Details

Date: 13 August 2020
Orbit: 605 x 634 km, 82.5° (Epoch: 23 September)

Event Time Altitude Azimuth Distance (km) Brightness Sun altitude
Rises 20:30:06 0° 352° (N) 2,880 7.9 -20.8°
Reaches altitude 10° 20:32:20 10° 353° (N) 1,968 6.9 -21.0°
Maximum altitude 20:36:42 82° 82° (E) 617 3.4 -21.6°
Enters shadow 20:37:18 65° 155° (SSE) 668 3.4 -21.6°
